Weather History for Orange, MA

Change the Weather History Date:

Wednesday, November 13, 2013

  Actual Average Record
Temperature  
Mean Temperature 24 °F -  
Max Temperature 33 °F 44 °F 64 °F (2010)
Min Temperature 15 °F 26 °F 12 °F (2001)
Degree Days  
Heating Degree Days 41    
Moisture  
Dew Point 11 °F    
Average Humidity 59    
Maximum Humidity 88    
Minimum Humidity 35    
Precipitation  
Precipitation 0.00 in - - ()
Sea Level Pressure  
Sea Level Pressure 30.26 in    
Wind  
Wind Speed 6 mph (West)    
Max Wind Speed 13 mph    
Max Gust Speed -    
Visibility 10 miles    
Events      
Averages and records for this station are not official NWS values.
T = Trace of Precipitation, MM = Missing Value Source: NWS Daily Summary

Daily Weather History Graph

Daily Weather History Graph

Search for Another Location

Airport:

Trip Planner

Search our weather history database for the weather conditions in past years. The results will help you decide how hot, cold, wet, or windy it might be!

Date:

Astronomy

Nov. 13, 2013 Rise Set
Actual Time 6:38 AM EST 4:28 PM EST
Civil Twilight 6:08 AM EST 4:58 PM EST
Nautical Twilight 5:34 AM EST 5:32 PM EST
Astronomical Twilight 5:00 AM EST 6:05 PM EST
Moon 2:18 PM EST (11/13) 2:23 AM EST (11/13)
Length of Visible Light 10h 50m
Length of Day
9h 50m
Waxing Gibbous, 84% of the Moon is Illuminated
Nov 13
Waxing Gibbous
Nov 17
Full
Nov 25
Last Quarter
Dec 2
New
Dec 9
First Quarter

Hourly Weather History & Observations

Time (EST) Temp. Windchill Dew Point Humidity Pressure Visibility Wind Dir Wind Speed Gust Speed Precip Events Conditions
12:52 AM 19.9 °F 13.4 °F 12.0 °F 71% 30.21 in 10.0 mi WNW 4.6 mph - N/A   Clear
1:52 AM 17.1 °F 8.7 °F 10.9 °F 77% 30.23 in 10.0 mi ESE 5.8 mph - N/A   Clear
2:52 AM 15.1 °F 9.4 °F 10.9 °F 84% 30.23 in 10.0 mi NE 3.5 mph - N/A   Clear
3:52 AM 15.1 °F - 12.0 °F 88% 30.24 in 8.0 mi Calm Calm - N/A   Clear
4:52 AM 16.0 °F - 12.9 °F 88% 30.25 in 10.0 mi Calm Calm - N/A   Clear
5:52 AM 15.1 °F - 12.0 °F 88% 30.27 in 10.0 mi Calm Calm - N/A   Clear
6:52 AM 19.0 °F 11.1 °F 12.0 °F 74% 30.29 in 10.0 mi NW 5.8 mph - N/A   Clear
7:52 AM 23.0 °F 13.9 °F 12.9 °F 65% 30.32 in 10.0 mi NW 8.1 mph - N/A   Clear
8:52 AM 25.0 °F 13.6 °F 12.0 °F 58% 30.32 in 10.0 mi NNW 12.7 mph - N/A   Clear
9:52 AM 27.0 °F 23.0 °F 10.9 °F 51% 30.32 in 10.0 mi WNW 3.5 mph - N/A   Clear
10:52 AM 28.9 °F 20.4 °F 10.0 °F 45% 30.30 in 10.0 mi West 9.2 mph - N/A   Clear
11:52 AM 30.9 °F 21.7 °F 10.0 °F 42% 30.28 in 10.0 mi West 11.5 mph - N/A   Clear
12:52 PM 32.0 °F 23.6 °F 8.1 °F 37% 30.26 in 10.0 mi West 10.4 mph - N/A   Clear
1:52 PM 33.1 °F 23.9 °F 8.1 °F 35% 30.25 in 10.0 mi WNW 12.7 mph - N/A   Clear
2:52 PM 33.1 °F 24.9 °F 8.1 °F 35% 30.25 in 10.0 mi West 10.4 mph - N/A   Clear
3:52 PM 32.0 °F 23.0 °F 8.1 °F 37% 30.25 in 10.0 mi West 11.5 mph - N/A   Clear
4:52 PM 30.0 °F 24.1 °F 8.1 °F 40% 30.26 in 10.0 mi West 5.8 mph - N/A   Clear
5:52 PM 27.0 °F 20.5 °F 10.0 °F 49% 30.26 in 10.0 mi SSW 5.8 mph - N/A   Clear
6:52 PM 25.0 °F 17.1 °F 10.0 °F 53% 30.26 in 10.0 mi SSW 6.9 mph - N/A   Clear
7:52 PM 24.1 °F 15.2 °F 10.9 °F 57% 30.25 in 10.0 mi SSW 8.1 mph - N/A   Clear
8:52 PM 25.0 °F 17.1 °F 12.0 °F 58% 30.24 in 10.0 mi SSW 6.9 mph - N/A   Clear
9:52 PM 26.1 °F 18.4 °F 14.0 °F 60% 30.22 in 10.0 mi SSW 6.9 mph - N/A   Clear
10:52 PM 26.1 °F 20.5 °F 16.0 °F 66% 30.19 in 10.0 mi SSW 4.6 mph - N/A   Clear
11:52 PM 28.9 °F 21.9 °F 15.1 °F 56% 30.17 in 10.0 mi South 6.9 mph - N/A   Clear